CZ-6A DEB, 54930

Orbit data source: Space-Track

CZ-6A DEB, 54930 is space debris in SSO originally from a launch on Fri, 11 Nov 2022 UTC launched from the Taiyaun Space Center, China (TSC). Debris objects in space refer to the collection of defunct objects orbiting the Earth. Examples of debris include non-operational satellites, rocket bodies, and fragments generated from explosions, collisions, or faulty payload assembly.

Loading next visibility...
Identifier
54930, 2022-151RT
Orbit
SSO
Country
Flag of CNCN / PRC
Related business
Manufacturer
SAST
Mission
Spacecraft
Bus & Motor
Unknown
Mass
Unknown
Launch date (UTC)
2022-11-11 (4 years ago)
Launch vehicle
Unknown
Launch site
Taiyaun Space Center, China (TSC)
Object type
Payload
Rocket body
Debris
Shape & HBR
Unknown shape, 0.1 m
Radar Cross Section
Small (<0.1 m²)

Expand to show TLE details & history
Last TLE update: 5 days ago

TLE from 5 days ago
0 CZ-6A DEB
1 54930U 22151RT  26168.06081339  .00005941  00000-0  87897-3 0  9996
2 54930  98.4271 215.7554 0091966 212.2204 147.3364 14.72716917190617
Epoch: 2026-06-17T01:27Z
TLE epoch observation values (Epoch: 2026-06-17T01:27:34.276Z)
Latitude
-0.00004°
Longitude
-71.46132°
Altitude
710.018 km
Speed
7.472 km/s
True Right ascension
14h 23m 01s
True Declination
0° 00' 00"
Sunlit
Object was in full shadow at epoch
Visualization orbit readout
Latitude
Unknown
Longitude
Unknown
Altitude
Unknown
Speed
Unknown
Apparent Right ascension
Unknown
Apparent Declination
Unknown
Sunlit
N/A
Visualization observer readout
Local Sidereal Time
23:07:25
Azimuth
Unknown
Elevation
Unknown
Doppler factor
Unknown
Orbital elements
Apogee altitude
714.113 km
Perigee altitude
584.852 km
Semi-major axis
7,027.619 km
Eccentricity
0.0092
Inclination
98.4271°
RAAN
215.7554°
Arg. of periapsis
212.2204°
True anomaly
147.89971°
Mean anomaly
147.3364°
Eccentric anomaly
147.6186°
Mean motion
3.68409 °/min
Orbital period
97.72 mins
BSTAR
0.00087897
Loading maneuver chart data...
Computing Atmospheric mass density...

Documentation

Showing up to 5 results
|